Home > Weather > Columbus > Past weeks

Flag for USA Weather for the Past 2 Weeks in Columbus, Georgia, USA

Now
69 °F

Partly cloudy.


Feels Like: 69 °F
Forecast: 64 / 76 °F
Wind: 3 mph from West

Location: Columbus Metropolitan Airport

Current Time: May 3, 2016 at 3:20:04 AM

Latest Report: May 3, 2016 at 1:51 AM


Visibility: 10 mi

Pressure: 29.90 "Hg

Humidity: 84%

Dew Point: 64 °F

Location of ColumbusLocation

Historic Weather in Columbus — Graph

°F

Columbus Temperature Yesterday

Maximum temperature yesterday: 81 °F (at 1:51 PM)
Minimum temperature yesterday: 65 °F (at 6:51 AM)
Average temperature yesterday: 74 °F

High & Low Weather Summary for the Past Weeks

 TemperatureHumidityPressure
High87 °F (Apr 29, 2:51 PM)100% (Apr 29, 8:00 AM)30.34 "Hg (Apr 29, 8:00 AM)
Low46 °F (Apr 18, 6:51 AM)19% (Apr 19, 4:51 PM)29.81 "Hg (Apr 27, 4:51 PM)
Average71 °F67%30.00 "Hg
* Reported Apr 18 1:51 AM — May 3 1:51 AM, Columbus, Weather by CustomWeather, © 2016

Note: Actual official high and low records may vary slightly from our data, if they occured in-between our weather recording intervals... More about our weather records

Advertising

Columbus Weather History for the Previous 24 Hours

Scroll right to see more
 ConditionsComfort  
Time TempWeatherWind HumidityBarometerVisibility
1:51 AM
Tue, May 3
69 °FPartly cloudy.3 mph84%29.90 "Hg10 mi
12:51 AM70 °FPassing clouds.3 mph87%29.91 "Hg10 mi
11:51 PM
Mon, May 2
71 °FLight rain. Passing clouds.3 mph87%29.92 "Hg10 mi
10:51 PM72 °FClear.No wind84%29.91 "Hg10 mi
9:51 PM72 °FPassing clouds.5 mph81%29.93 "Hg10 mi
8:51 PM72 °FThunderstorms. Mostly cloudy.5 mph73%29.93 "Hg10 mi
7:51 PM77 °FScattered clouds.8 mph66%29.91 "Hg10 mi
6:51 PM79 °FSunny.7 mph62%29.89 "Hg10 mi
5:51 PM79 °FScattered clouds.7 mph62%29.90 "Hg10 mi
4:51 PM80 °FScattered clouds.9 mph62%29.92 "Hg10 mi
3:51 PM80 °FScattered clouds.8 mph60%29.95 "Hg10 mi
2:51 PM81 °FPartly sunny.9 mph60%29.97 "Hg10 mi
1:51 PM81 °FPartly sunny.8 mph58%30.00 "Hg10 mi
12:51 PM79 °FCloudy.9 mph65%30.00 "Hg10 mi
11:51 AM79 °FBroken clouds.10 mph65%30.00 "Hg10 mi
10:51 AM77 °FPartly sunny.8 mph71%30.01 "Hg10 mi
9:51 AM74 °FSunny.6 mph82%30.01 "Hg10 mi
8:51 AM70 °FSunny.No wind87%30.01 "Hg10 mi
7:51 AM66 °FSunny.5 mph90%30.00 "Hg10 mi
6:51 AM65 °FClear.No wind94%29.98 "Hg10 mi
5:51 AM67 °FClear.No wind90%29.97 "Hg10 mi
4:51 AM68 °FClear.No wind90%29.97 "Hg10 mi
3:51 AM69 °FClear.No wind84%29.97 "Hg10 mi
Weather by CustomWeather, © 2016

See weather overviewHow to use our weather pages